Time,TemperatureF,DewpointF,PressureIn,WindDirection,WindDirectionDegrees,WindSpeedMPH,WindSpeedGustMPH,Humidity,HourlyPrecipIn,Conditions,Clouds,dailyrainin,SoftwareType,DateUTC
2013-10-30 00:04:00,48.6,44.0,30.31,South,180,3.0,3.0,84,0.00,,,0.00,Wunderground v.1.15,2013-10-30 04:04:00,
2013-10-30 00:09:00,48.7,44.1,30.31,South,180,3.0,5.0,84,0.00,,,0.00,Wunderground v.1.15,2013-10-30 04:09:00,
2013-10-30 00:14:00,48.8,44.2,30.31,South,180,5.0,6.0,84,0.00,,,0.00,Wunderground v.1.15,2013-10-30 04:14:00,
2013-10-30 00:19:00,48.8,44.2,30.30,South,180,5.0,5.0,84,0.00,,,0.00,Wunderground v.1.15,2013-10-30 04:19:00,
2013-10-30 00:24:00,49.0,44.4,30.30,WSW,246,4.0,6.0,84,0.00,,,0.00,Wunderground v.1.15,2013-10-30 04:24:00,
2013-10-30 00:29:00,49.4,45.1,30.30,SW,229,5.0,8.0,85,0.00,,,0.00,Wunderground v.1.15,2013-10-30 04:29:00,
2013-10-30 00:39:00,49.9,44.9,30.30,SW,215,9.0,9.0,83,0.00,,,0.00,Wunderground v.1.15,2013-10-30 04:39:00,
2013-10-30 00:49:00,49.5,44.6,30.29,SW,223,5.0,5.0,83,0.00,,,0.00,Wunderground v.1.15,2013-10-30 04:49:00,
2013-10-30 00:59:00,48.8,44.5,30.29,SW,223,5.0,5.0,85,0.00,,,0.00,Wunderground v.1.15,2013-10-30 04:59:00,
2013-10-30 01:04:00,48.8,44.5,30.29,SW,223,5.0,5.0,85,0.00,,,0.00,Wunderground v.1.15,2013-10-30 05:04:00,
2013-10-30 01:09:00,48.7,44.7,30.29,SW,223,5.0,5.0,86,0.00,,,0.00,Wunderground v.1.15,2013-10-30 05:09:00,
2013-10-30 01:19:00,49.1,45.1,30.28,SSW,196,6.0,7.0,86,0.00,,,0.00,Wunderground v.1.15,2013-10-30 05:19:00,
2013-10-30 01:24:00,49.2,45.2,30.28,SSW,196,7.0,7.0,86,0.00,,,0.00,Wunderground v.1.15,2013-10-30 05:24:00,
2013-10-30 01:29:00,49.3,45.3,30.28,SSW,196,7.0,7.0,86,0.00,,,0.00,Wunderground v.1.15,2013-10-30 05:29:00,
2013-10-30 01:34:00,49.3,45.3,30.28,SSW,197,6.0,7.0,86,0.00,,,0.00,Wunderground v.1.15,2013-10-30 05:34:00,
2013-10-30 01:39:00,49.3,45.3,30.28,SSW,197,6.0,6.0,86,0.00,,,0.00,Wunderground v.1.15,2013-10-30 05:39:00,
2013-10-30 01:49:00,49.3,45.3,30.28,SSW,197,5.0,5.0,86,0.00,,,0.00,Wunderground v.1.15,2013-10-30 05:49:00,
2013-10-30 01:54:00,49.4,45.4,30.28,SSW,197,5.0,6.0,86,0.00,,,0.00,Wunderground v.1.15,2013-10-30 05:54:00,
2013-10-30 01:59:00,49.4,45.4,30.27,SSW,197,5.0,6.0,86,0.00,,,0.00,Wunderground v.1.15,2013-10-30 05:59:00,
2013-10-30 02:09:00,49.4,45.7,30.27,SSW,197,5.0,5.0,87,0.00,,,0.00,Wunderground v.1.15,2013-10-30 06:09:00,
2013-10-30 02:14:00,49.4,45.7,30.27,SSW,197,5.0,5.0,87,0.00,,,0.00,Wunderground v.1.15,2013-10-30 06:14:00,
2013-10-30 02:24:00,49.2,45.5,30.27,SSW,197,5.0,5.0,87,0.00,,,0.00,Wunderground v.1.15,2013-10-30 06:24:00,
2013-10-30 02:29:00,49.3,45.6,30.27,SW,226,5.0,5.0,87,0.00,,,0.00,Wunderground v.1.15,2013-10-30 06:29:00,
2013-10-30 02:34:00,49.3,45.6,30.27,SW,227,6.0,6.0,87,0.00,,,0.00,Wunderground v.1.15,2013-10-30 06:34:00,
2013-10-30 02:39:00,49.5,45.8,30.27,SW,223,7.0,7.0,87,0.00,,,0.00,Wunderground v.1.15,2013-10-30 06:39:00,
2013-10-30 02:44:00,49.5,45.5,30.27,SSW,210,7.0,7.0,86,0.00,,,0.00,Wunderground v.1.15,2013-10-30 06:44:00,
2013-10-30 02:49:00,49.5,45.8,30.26,SSW,210,5.0,5.0,87,0.00,,,0.00,Wunderground v.1.15,2013-10-30 06:49:00,
2013-10-30 02:54:00,49.4,45.7,30.26,SSW,210,5.0,5.0,87,0.00,,,0.00,Wunderground v.1.15,2013-10-30 06:54:00,
2013-10-30 03:04:00,49.2,45.5,30.26,SSW,210,5.0,6.0,87,0.00,,,0.00,Wunderground v.1.15,2013-10-30 07:04:00,
2013-10-30 03:09:00,49.0,45.6,30.26,SSW,210,6.0,6.0,88,0.00,,,0.00,Wunderground v.1.15,2013-10-30 07:09:00,
2013-10-30 03:14:00,49.0,45.6,30.26,SSW,210,6.0,6.0,88,0.00,,,0.00,Wunderground v.1.15,2013-10-30 07:14:00,
2013-10-30 03:19:00,49.0,45.6,30.26,SSW,210,6.0,6.0,88,0.00,,,0.00,Wunderground v.1.15,2013-10-30 07:19:00,
2013-10-30 03:24:00,49.1,45.7,30.26,SSW,210,6.0,7.0,88,0.00,,,0.00,Wunderground v.1.15,2013-10-30 07:24:00,
2013-10-30 03:29:00,49.0,45.6,30.25,SSW,210,7.0,7.0,88,0.00,,,0.00,Wunderground v.1.15,2013-10-30 07:29:00,
2013-10-30 03:39:00,48.8,45.4,30.25,SSW,210,7.0,8.0,88,0.00,,,0.00,Wunderground v.1.15,2013-10-30 07:39:00,
2013-10-30 03:44:00,48.8,45.4,30.26,SSW,210,7.0,8.0,88,0.00,,,0.00,Wunderground v.1.15,2013-10-30 07:44:00,
2013-10-30 03:54:00,48.8,45.4,30.25,SSW,210,6.0,7.0,88,0.00,,,0.00,Wunderground v.1.15,2013-10-30 07:54:00,
2013-10-30 03:59:00,48.8,45.4,30.25,SSW,210,6.0,6.0,88,0.00,,,0.00,Wunderground v.1.15,2013-10-30 07:59:00,
2013-10-30 04:09:00,48.9,45.5,30.25,SSW,210,5.0,5.0,88,0.00,,,0.00,Wunderground v.1.15,2013-10-30 08:09:00,
2013-10-30 04:14:00,48.9,45.5,30.25,SSW,210,4.0,5.0,88,0.00,,,0.00,Wunderground v.1.15,2013-10-30 08:14:00,
2013-10-30 04:19:00,48.9,45.5,30.25,SSW,210,4.0,4.0,88,0.00,,,0.00,Wunderground v.1.15,2013-10-30 08:19:00,
2013-10-30 04:24:00,49.0,45.6,30.25,SSW,210,5.0,5.0,88,0.00,,,0.00,Wunderground v.1.15,2013-10-30 08:24:00,
2013-10-30 04:29:00,49.2,45.8,30.24,SSW,210,5.0,5.0,88,0.00,,,0.00,Wunderground v.1.15,2013-10-30 08:29:00,
2013-10-30 04:39:00,49.3,45.9,30.24,SSW,210,4.0,4.0,88,0.00,,,0.00,Wunderground v.1.15,2013-10-30 08:39:00,
2013-10-30 04:44:00,49.2,45.8,30.24,SSW,210,3.0,4.0,88,0.00,,,0.00,Wunderground v.1.15,2013-10-30 08:44:00,
2013-10-30 04:54:00,49.2,45.8,30.24,SSW,210,2.0,3.0,88,0.00,,,0.00,Wunderground v.1.15,2013-10-30 08:54:00,
2013-10-30 04:59:00,49.2,45.8,30.24,SSW,210,3.0,4.0,88,0.00,,,0.00,Wunderground v.1.15,2013-10-30 08:59:00,
2013-10-30 05:04:00,49.2,45.8,30.24,SSW,210,4.0,4.0,88,0.00,,,0.00,Wunderground v.1.15,2013-10-30 09:04:00,
2013-10-30 05:14:00,49.0,45.6,30.24,SSW,210,3.0,3.0,88,0.00,,,0.00,Wunderground v.1.15,2013-10-30 09:14:00,
2013-10-30 05:24:00,49.0,45.6,30.24,SSW,210,3.0,5.0,88,0.00,,,0.00,Wunderground v.1.15,2013-10-30 09:24:00,
2013-10-30 05:34:00,48.9,45.5,30.23,SSW,210,4.0,5.0,88,0.00,,,0.00,Wunderground v.1.15,2013-10-30 09:34:00,
2013-10-30 05:44:00,48.8,45.4,30.23,SSW,210,4.0,4.0,88,0.00,,,0.00,Wunderground v.1.15,2013-10-30 09:44:00,
2013-10-30 05:54:00,48.7,45.3,30.24,SSW,210,3.0,4.0,88,0.00,,,0.00,Wunderground v.1.15,2013-10-30 09:54:00,
2013-10-30 05:59:00,48.6,45.5,30.24,SSW,210,2.0,2.0,89,0.00,,,0.00,Wunderground v.1.15,2013-10-30 09:59:00,
2013-10-30 06:09:00,48.7,45.6,30.24,SSW,210,0.0,0.0,89,0.00,,,0.00,Wunderground v.1.15,2013-10-30 10:09:00,
2013-10-30 06:14:00,48.8,45.7,30.24,SSW,210,1.0,2.0,89,0.00,,,0.00,Wunderground v.1.15,2013-10-30 10:14:00,
2013-10-30 06:19:00,48.9,45.5,30.24,SSW,210,2.0,2.0,88,0.00,,,0.00,Wunderground v.1.15,2013-10-30 10:19:00,
2013-10-30 06:24:00,48.9,45.5,30.24,SSW,210,2.0,2.0,88,0.00,,,0.00,Wunderground v.1.15,2013-10-30 10:24:00,
2013-10-30 06:29:00,48.8,45.7,30.25,SSW,210,1.0,1.0,89,0.00,,,0.00,Wunderground v.1.15,2013-10-30 10:29:00,
2013-10-30 06:34:00,48.9,45.8,30.24,SSW,210,1.0,1.0,89,0.00,,,0.00,Wunderground v.1.15,2013-10-30 10:34:00,
2013-10-30 06:39:00,49.0,45.9,30.25,SSW,210,1.0,3.0,89,0.00,,,0.00,Wunderground v.1.15,2013-10-30 10:39:00,
2013-10-30 06:49:00,49.2,46.1,30.25,SSW,210,4.0,4.0,89,0.00,,,0.00,Wunderground v.1.15,2013-10-30 10:49:00,
2013-10-30 06:54:00,49.1,46.0,30.25,SSW,210,4.0,5.0,89,0.00,,,0.00,Wunderground v.1.15,2013-10-30 10:54:00,
2013-10-30 06:59:00,49.1,46.0,30.25,SSW,210,4.0,5.0,89,0.00,,,0.00,Wunderground v.1.15,2013-10-30 10:59:00,
2013-10-30 07:04:00,49.0,45.9,30.24,SSW,210,4.0,5.0,89,0.00,,,0.01,Wunderground v.1.15,2013-10-30 11:04:00,
2013-10-30 07:09:00,48.9,45.8,30.24,SSW,210,3.0,4.0,89,0.08,,,0.02,Wunderground v.1.15,2013-10-30 11:09:00,
2013-10-30 07:19:00,48.7,45.9,30.24,SSW,211,5.0,5.0,90,0.08,,,0.03,Wunderground v.1.15,2013-10-30 11:19:00,
2013-10-30 07:24:00,48.7,45.9,30.24,SW,220,6.0,8.0,90,0.06,,,0.03,Wunderground v.1.15,2013-10-30 11:24:00,
2013-10-30 07:34:00,48.5,45.7,30.23,SSW,197,8.0,10.0,90,0.00,,,0.04,Wunderground v.1.15,2013-10-30 11:34:00,
2013-10-30 07:39:00,48.5,45.7,30.23,SSW,205,9.0,9.0,90,0.00,,,0.04,Wunderground v.1.15,2013-10-30 11:39:00,
2013-10-30 07:44:00,48.5,45.7,30.23,SSW,207,8.0,9.0,90,0.00,,,0.04,Wunderground v.1.15,2013-10-30 11:44:00,
2013-10-30 07:49:00,48.4,45.6,30.23,SSW,210,7.0,8.0,90,0.00,,,0.04,Wunderground v.1.15,2013-10-30 11:49:00,
2013-10-30 07:54:00,48.3,45.5,30.23,SSW,210,6.0,8.0,90,0.00,,,0.04,Wunderground v.1.15,2013-10-30 11:54:00,
2013-10-30 07:59:00,48.2,45.4,30.22,SSW,210,6.0,6.0,90,0.00,,,0.04,Wunderground v.1.15,2013-10-30 11:59:00,
2013-10-30 08:04:00,48.2,45.4,30.22,SSW,210,6.0,6.0,90,0.00,,,0.04,Wunderground v.1.15,2013-10-30 12:04:00,
2013-10-30 08:09:00,48.3,45.5,30.22,SSW,210,7.0,7.0,90,0.00,,,0.04,Wunderground v.1.15,2013-10-30 12:09:00,
2013-10-30 08:14:00,48.4,45.6,30.22,SSW,209,8.0,8.0,90,0.00,,,0.04,Wunderground v.1.15,2013-10-30 12:14:00,
2013-10-30 08:24:00,48.5,45.7,30.22,SSW,204,10.0,11.0,90,0.00,,,0.04,Wunderground v.1.15,2013-10-30 12:24:00,
2013-10-30 08:34:00,48.8,46.0,30.22,SSW,205,10.0,10.0,90,0.00,,,0.04,Wunderground v.1.15,2013-10-30 12:34:00,
2013-10-30 08:44:00,49.1,46.3,30.21,SSW,208,10.0,10.0,90,0.00,,,0.04,Wunderground v.1.15,2013-10-30 12:44:00,
2013-10-30 08:49:00,49.2,46.4,30.22,SSW,208,10.0,10.0,90,0.00,,,0.04,Wunderground v.1.15,2013-10-30 12:49:00,
2013-10-30 08:54:00,49.4,46.6,30.22,SSW,211,9.0,11.0,90,0.00,,,0.04,Wunderground v.1.15,2013-10-30 12:54:00,
2013-10-30 08:59:00,49.5,46.7,30.22,SW,220,10.0,13.0,90,0.00,,,0.04,Wunderground v.1.15,2013-10-30 12:59:00,
2013-10-30 09:09:00,49.5,46.7,30.23,SW,222,13.0,13.0,90,0.00,,,0.04,Wunderground v.1.15,2013-10-30 13:09:00,
2013-10-30 09:14:00,49.5,46.7,30.23,SSW,203,12.0,13.0,90,0.00,,,0.04,Wunderground v.1.15,2013-10-30 13:14:00,
2013-10-30 09:24:00,49.6,46.8,30.23,SW,221,10.0,11.0,90,0.00,,,0.04,Wunderground v.1.15,2013-10-30 13:24:00,
2013-10-30 09:29:00,49.7,46.9,30.23,SSW,208,10.0,10.0,90,0.00,,,0.04,Wunderground v.1.15,2013-10-30 13:29:00,
2013-10-30 09:34:00,49.9,47.1,30.23,SW,219,11.0,11.0,90,0.00,,,0.04,Wunderground v.1.15,2013-10-30 13:34:00,
2013-10-30 09:44:00,50.0,47.2,30.23,SW,224,11.0,12.0,90,0.00,,,0.04,Wunderground v.1.15,2013-10-30 13:44:00,
2013-10-30 09:49:00,49.9,47.1,30.23,SW,228,10.0,13.0,90,0.00,,,0.04,Wunderground v.1.15,2013-10-30 13:49:00,
2013-10-30 09:54:00,49.9,47.1,30.23,SW,217,10.0,13.0,90,0.00,,,0.04,Wunderground v.1.15,2013-10-30 13:54:00,
2013-10-30 09:59:00,50.0,47.2,30.23,SSW,210,11.0,13.0,90,0.00,,,0.04,Wunderground v.1.15,2013-10-30 13:59:00,
2013-10-30 10:09:00,50.3,47.5,30.23,SW,217,12.0,13.0,90,0.00,,,0.04,Wunderground v.1.15,2013-10-30 14:09:00,
2013-10-30 10:14:00,50.4,47.6,30.23,SW,218,12.0,13.0,90,0.00,,,0.04,Wunderground v.1.15,2013-10-30 14:14:00,
2013-10-30 10:19:00,50.5,47.7,30.22,SW,215,12.0,12.0,90,0.00,,,0.04,Wunderground v.1.15,2013-10-30 14:19:00,
2013-10-30 10:24:00,50.6,47.8,30.22,SW,215,12.0,12.0,90,0.00,,,0.04,Wunderground v.1.15,2013-10-30 14:24:00,
2013-10-30 10:29:00,50.8,48.0,30.22,SW,219,11.0,11.0,90,0.00,,,0.04,Wunderground v.1.15,2013-10-30 14:29:00,
2013-10-30 10:34:00,50.9,48.1,30.22,SSW,211,10.0,11.0,90,0.00,,,0.04,Wunderground v.1.15,2013-10-30 14:34:00,
2013-10-30 10:39:00,51.1,48.3,30.22,SSW,198,9.0,9.0,90,0.00,,,0.04,Wunderground v.1.15,2013-10-30 14:39:00,
2013-10-30 10:49:00,51.4,48.6,30.22,SW,222,9.0,9.0,90,0.00,,,0.04,Wunderground v.1.15,2013-10-30 14:49:00,
2013-10-30 10:54:00,51.5,48.7,30.22,SW,218,9.0,9.0,90,0.00,,,0.04,Wunderground v.1.15,2013-10-30 14:54:00,
2013-10-30 10:59:00,51.7,48.9,30.23,SSW,213,9.0,12.0,90,0.00,,,0.04,Wunderground v.1.15,2013-10-30 14:59:00,
2013-10-30 11:04:00,51.7,48.9,30.23,SW,221,10.0,12.0,90,0.00,,,0.04,Wunderground v.1.15,2013-10-30 15:04:00,
2013-10-30 11:09:00,51.8,49.0,30.22,SSW,213,11.0,11.0,90,0.00,,,0.04,Wunderground v.1.15,2013-10-30 15:09:00,
2013-10-30 11:14:00,52.2,49.4,30.23,SW,215,10.0,11.0,90,0.00,,,0.04,Wunderground v.1.15,2013-10-30 15:14:00,
2013-10-30 11:19:00,52.3,49.5,30.23,SW,219,10.0,10.0,90,0.00,,,0.04,Wunderground v.1.15,2013-10-30 15:19:00,
2013-10-30 11:29:00,52.2,49.4,30.23,SW,218,10.0,10.0,90,0.00,,,0.04,Wunderground v.1.15,2013-10-30 15:29:00,
2013-10-30 11:39:00,52.4,49.6,30.23,SW,223,9.0,10.0,90,0.00,,,0.04,Wunderground v.1.15,2013-10-30 15:39:00,
2013-10-30 11:44:00,52.5,49.7,30.22,SW,215,9.0,10.0,90,0.00,,,0.04,Wunderground v.1.15,2013-10-30 15:44:00,
2013-10-30 11:54:00,52.6,49.8,30.23,SW,215,10.0,12.0,90,0.00,,,0.04,Wunderground v.1.15,2013-10-30 15:54:00,
2013-10-30 11:59:00,52.7,49.8,30.22,SW,215,10.0,10.0,90,0.00,,,0.04,Wunderground v.1.15,2013-10-30 15:59:00,
2013-10-30 12:04:00,52.9,50.0,30.22,SW,215,10.0,11.0,90,0.00,,,0.04,Wunderground v.1.15,2013-10-30 16:04:00,
2013-10-30 12:09:00,53.2,50.3,30.22,SSW,207,10.0,10.0,90,0.00,,,0.04,Wunderground v.1.15,2013-10-30 16:09:00,
2013-10-30 12:14:00,53.3,50.4,30.22,SW,220,10.0,10.0,90,0.00,,,0.04,Wunderground v.1.15,2013-10-30 16:14:00,
2013-10-30 12:19:00,53.3,50.4,30.22,SSW,211,10.0,10.0,90,0.00,,,0.04,Wunderground v.1.15,2013-10-30 16:19:00,
2013-10-30 12:29:00,53.2,50.3,30.22,SSW,210,9.0,9.0,90,0.00,,,0.04,Wunderground v.1.15,2013-10-30 16:29:00,
2013-10-30 12:34:00,53.5,50.6,30.22,SW,219,8.0,9.0,90,0.00,,,0.04,Wunderground v.1.15,2013-10-30 16:34:00,
2013-10-30 12:44:00,53.9,51.0,30.21,SW,219,8.0,9.0,90,0.00,,,0.04,Wunderground v.1.15,2013-10-30 16:44:00,
2013-10-30 12:49:00,54.3,51.4,30.20,SW,221,8.0,9.0,90,0.00,,,0.04,Wunderground v.1.15,2013-10-30 16:49:00,
2013-10-30 12:54:00,54.4,51.5,30.20,SSW,210,8.0,9.0,90,0.00,,,0.04,Wunderground v.1.15,2013-10-30 16:54:00,
2013-10-30 12:59:00,54.7,51.8,30.20,SSW,205,7.0,7.0,90,0.00,,,0.04,Wunderground v.1.15,2013-10-30 16:59:00,
2013-10-30 13:09:00,55.3,52.4,30.19,SSW,193,9.0,9.0,90,0.00,,,0.04,Wunderground v.1.15,2013-10-30 17:09:00,
2013-10-30 13:19:00,55.7,52.5,30.19,South,190,9.0,9.0,89,0.00,,,0.04,Wunderground v.1.15,2013-10-30 17:19:00,
2013-10-30 13:24:00,56.0,52.8,30.18,SSW,204,9.0,9.0,89,0.00,,,0.04,Wunderground v.1.15,2013-10-30 17:24:00,
2013-10-30 13:34:00,56.6,53.1,30.18,SSW,208,9.0,9.0,88,0.00,,,0.04,Wunderground v.1.15,2013-10-30 17:34:00,
2013-10-30 13:39:00,56.7,53.2,30.18,South,183,8.0,8.0,88,0.00,,,0.04,Wunderground v.1.15,2013-10-30 17:39:00,
2013-10-30 13:44:00,56.9,53.1,30.18,SSW,202,7.0,11.0,87,0.00,,,0.04,Wunderground v.1.15,2013-10-30 17:44:00,
2013-10-30 13:54:00,57.1,53.3,30.18,South,186,9.0,10.0,87,0.00,,,0.04,Wunderground v.1.15,2013-10-30 17:54:00,
2013-10-30 13:59:00,57.6,53.8,30.17,South,178,8.0,8.0,87,0.00,,,0.04,Wunderground v.1.15,2013-10-30 17:59:00,
2013-10-30 14:04:00,57.7,53.5,30.17,South,191,8.0,8.0,86,0.00,,,0.04,Wunderground v.1.15,2013-10-30 18:04:00,
2013-10-30 14:14:00,58.4,53.9,30.17,WSW,244,4.0,6.0,85,0.00,,,0.04,Wunderground v.1.15,2013-10-30 18:14:00,
2013-10-30 14:19:00,58.6,53.8,30.16,SSW,210,6.0,9.0,84,0.00,,,0.04,Wunderground v.1.15,2013-10-30 18:19:00,
2013-10-30 14:29:00,59.3,54.1,30.17,SW,218,6.0,8.0,83,0.00,,,0.04,Wunderground v.1.15,2013-10-30 18:29:00,
2013-10-30 14:34:00,59.5,54.3,30.17,SW,224,7.0,11.0,83,0.00,,,0.04,Wunderground v.1.15,2013-10-30 18:34:00,
2013-10-30 14:39:00,59.8,54.3,30.17,SW,234,8.0,10.0,82,0.00,,,0.04,Wunderground v.1.15,2013-10-30 18:39:00,
2013-10-30 14:44:00,60.2,54.3,30.17,SW,232,6.0,10.0,81,0.00,,,0.04,Wunderground v.1.15,2013-10-30 18:44:00,
2013-10-30 14:54:00,61.0,54.8,30.17,WSW,251,6.0,10.0,80,0.00,,,0.04,Wunderground v.1.15,2013-10-30 18:54:00,
2013-10-30 15:04:00,61.0,54.8,30.17,WSW,254,6.0,10.0,80,0.00,,,0.04,Wunderground v.1.15,2013-10-30 19:04:00,
2013-10-30 15:09:00,61.0,54.1,30.16,West,279,7.0,7.0,78,0.00,,,0.04,Wunderground v.1.15,2013-10-30 19:09:00,
2013-10-30 15:14:00,60.8,54.2,30.17,West,279,4.0,7.0,79,0.00,,,0.04,Wunderground v.1.15,2013-10-30 19:14:00,
2013-10-30 15:19:00,60.4,53.9,30.16,SW,226,3.0,7.0,79,0.00,,,0.04,Wunderground v.1.15,2013-10-30 19:19:00,
2013-10-30 15:24:00,59.9,53.7,30.16,WSW,244,6.0,7.0,80,0.00,,,0.04,Wunderground v.1.15,2013-10-30 19:24:00,
2013-10-30 15:29:00,59.6,53.4,30.16,WSW,238,7.0,7.0,80,0.00,,,0.04,Wunderground v.1.15,2013-10-30 19:29:00,
2013-10-30 15:34:00,59.1,53.6,30.16,SSW,213,7.0,9.0,82,0.00,,,0.04,Wunderground v.1.15,2013-10-30 19:34:00,
2013-10-30 15:39:00,59.0,53.8,30.16,SW,215,8.0,9.0,83,0.00,,,0.04,Wunderground v.1.15,2013-10-30 19:39:00,
2013-10-30 15:44:00,58.8,53.6,30.16,SSW,207,8.0,9.0,83,0.00,,,0.04,Wunderground v.1.15,2013-10-30 19:44:00,
2013-10-30 15:54:00,58.3,53.5,30.16,SSW,205,10.0,11.0,84,0.00,,,0.04,Wunderground v.1.15,2013-10-30 19:54:00,
2013-10-30 15:59:00,58.1,53.6,30.17,SW,232,9.0,9.0,85,0.00,,,0.04,Wunderground v.1.15,2013-10-30 19:59:00,
2013-10-30 16:04:00,58.0,53.5,30.16,SSW,206,8.0,9.0,85,0.00,,,0.04,Wunderground v.1.15,2013-10-30 20:04:00,
2013-10-30 16:14:00,57.9,53.4,30.16,SSW,200,7.0,8.0,85,0.00,,,0.04,Wunderground v.1.15,2013-10-30 20:14:00,
2013-10-30 16:19:00,58.0,53.8,30.16,SSW,200,6.0,6.0,86,0.00,,,0.04,Wunderground v.1.15,2013-10-30 20:19:00,
2013-10-30 16:24:00,58.0,53.5,30.16,SSW,200,5.0,7.0,85,0.00,,,0.04,Wunderground v.1.15,2013-10-30 20:24:00,
2013-10-30 16:29:00,57.8,53.3,30.16,SSW,200,6.0,6.0,85,0.00,,,0.04,Wunderground v.1.15,2013-10-30 20:29:00,
2013-10-30 16:34:00,57.8,53.3,30.16,SSW,200,6.0,6.0,85,0.00,,,0.04,Wunderground v.1.15,2013-10-30 20:34:00,
2013-10-30 16:39:00,57.8,53.6,30.16,SSW,200,6.0,7.0,86,0.00,,,0.04,Wunderground v.1.15,2013-10-30 20:39:00,
2013-10-30 16:49:00,57.8,53.6,30.16,SSW,204,7.0,7.0,86,0.00,,,0.04,Wunderground v.1.15,2013-10-30 20:49:00,
2013-10-30 16:54:00,57.7,53.5,30.16,SSW,205,7.0,8.0,86,0.00,,,0.04,Wunderground v.1.15,2013-10-30 20:54:00,
2013-10-30 16:59:00,57.6,53.4,30.16,SSW,205,7.0,8.0,86,0.00,,,0.04,Wunderground v.1.15,2013-10-30 20:59:00,
2013-10-30 17:04:00,57.5,53.3,30.16,SSW,202,7.0,8.0,86,0.00,,,0.04,Wunderground v.1.15,2013-10-30 21:04:00,
2013-10-30 17:09:00,57.5,53.3,30.16,SW,214,7.0,7.0,86,0.00,,,0.04,Wunderground v.1.15,2013-10-30 21:09:00,
2013-10-30 17:14:00,57.4,53.2,30.16,SW,215,7.0,7.0,86,0.00,,,0.04,Wunderground v.1.15,2013-10-30 21:14:00,
2013-10-30 17:19:00,57.3,53.1,30.17,SW,215,8.0,10.0,86,0.00,,,0.04,Wunderground v.1.15,2013-10-30 21:19:00,
2013-10-30 17:24:00,57.2,53.0,30.17,SSW,208,8.0,10.0,86,0.00,,,0.04,Wunderground v.1.15,2013-10-30 21:24:00,
2013-10-30 17:29:00,56.9,52.8,30.16,SSW,201,8.0,8.0,86,0.00,,,0.04,Wunderground v.1.15,2013-10-30 21:29:00,
2013-10-30 17:34:00,56.5,52.7,30.17,SW,216,8.0,8.0,87,0.00,,,0.04,Wunderground v.1.15,2013-10-30 21:34:00,
2013-10-30 17:39:00,56.2,52.4,30.17,SW,214,8.0,11.0,87,0.00,,,0.04,Wunderground v.1.15,2013-10-30 21:39:00,
2013-10-30 17:49:00,55.9,52.4,30.17,SW,216,9.0,9.0,88,0.00,,,0.04,Wunderground v.1.15,2013-10-30 21:49:00,
2013-10-30 17:59:00,55.2,51.7,30.17,SW,216,6.0,6.0,88,0.00,,,0.04,Wunderground v.1.15,2013-10-30 21:59:00,
2013-10-30 18:04:00,54.8,51.6,30.18,SW,216,6.0,6.0,89,0.00,,,0.04,Wunderground v.1.15,2013-10-30 22:04:00,
2013-10-30 18:09:00,54.8,51.6,30.17,SW,216,6.0,7.0,89,0.00,,,0.04,Wunderground v.1.15,2013-10-30 22:09:00,
2013-10-30 18:14:00,54.9,52.0,30.18,SW,216,6.0,7.0,90,0.00,,,0.04,Wunderground v.1.15,2013-10-30 22:14:00,
2013-10-30 18:24:00,55.1,52.2,30.18,SW,216,6.0,7.0,90,0.00,,,0.04,Wunderground v.1.15,2013-10-30 22:24:00,
2013-10-30 18:34:00,55.3,52.4,30.18,SW,216,6.0,6.0,90,0.00,,,0.04,Wunderground v.1.15,2013-10-30 22:34:00,
2013-10-30 18:39:00,55.3,52.4,30.18,SW,216,6.0,6.0,90,0.00,,,0.04,Wunderground v.1.15,2013-10-30 22:39:00,
2013-10-30 18:44:00,55.3,52.4,30.18,SW,216,6.0,6.0,90,0.00,,,0.04,Wunderground v.1.15,2013-10-30 22:44:00,
2013-10-30 18:49:00,55.3,52.4,30.19,SW,216,6.0,6.0,90,0.00,,,0.04,Wunderground v.1.15,2013-10-30 22:49:00,
2013-10-30 18:59:00,55.3,52.4,30.19,SW,217,5.0,5.0,90,0.00,,,0.04,Wunderground v.1.15,2013-10-30 22:59:00,
2013-10-30 19:04:00,55.3,52.4,30.19,SW,217,5.0,6.0,90,0.00,,,0.04,Wunderground v.1.15,2013-10-30 23:04:00,
2013-10-30 19:09:00,55.2,52.3,30.19,SW,217,6.0,6.0,90,0.00,,,0.04,Wunderground v.1.15,2013-10-30 23:09:00,
2013-10-30 19:14:00,55.1,52.2,30.19,SW,217,5.0,6.0,90,0.00,,,0.04,Wunderground v.1.15,2013-10-30 23:14:00,
2013-10-30 19:19:00,55.0,52.1,30.19,SW,217,5.0,5.0,90,0.00,,,0.04,Wunderground v.1.15,2013-10-30 23:19:00,
2013-10-30 19:29:00,54.9,52.0,30.19,SSW,211,5.0,6.0,90,0.00,,,0.04,Wunderground v.1.15,2013-10-30 23:29:00,
2013-10-30 19:34:00,55.0,52.1,30.19,SSW,195,6.0,7.0,90,0.00,,,0.04,Wunderground v.1.15,2013-10-30 23:34:00,
2013-10-30 19:39:00,55.0,52.1,30.19,SSW,195,6.0,6.0,90,0.00,,,0.04,Wunderground v.1.15,2013-10-30 23:39:00,
2013-10-30 19:44:00,55.0,52.1,30.20,SSW,195,6.0,7.0,90,0.00,,,0.04,Wunderground v.1.15,2013-10-30 23:44:00,
2013-10-30 19:49:00,54.9,52.0,30.20,SSW,193,6.0,7.0,90,0.00,,,0.04,Wunderground v.1.15,2013-10-30 23:49:00,
2013-10-30 19:54:00,54.8,51.9,30.20,SSW,193,6.0,7.0,90,0.00,,,0.04,Wunderground v.1.15,2013-10-30 23:54:00,
2013-10-30 19:59:00,54.6,51.7,30.20,SSW,193,6.0,8.0,90,0.00,,,0.04,Wunderground v.1.15,2013-10-30 23:59:00,
2013-10-30 20:09:00,54.5,51.6,30.20,SSW,204,7.0,9.0,90,0.00,,,0.04,Wunderground v.1.15,2013-10-31 00:09:00,
2013-10-30 20:19:00,54.6,51.7,30.20,SW,225,7.0,8.0,90,0.00,,,0.04,Wunderground v.1.15,2013-10-31 00:19:00,
2013-10-30 20:24:00,54.9,52.0,30.21,SW,226,8.0,8.0,90,0.00,,,0.04,Wunderground v.1.15,2013-10-31 00:24:00,
2013-10-30 20:29:00,55.0,52.1,30.20,SSW,211,9.0,9.0,90,0.00,,,0.04,Wunderground v.1.15,2013-10-31 00:29:00,
2013-10-30 20:39:00,54.9,52.0,30.20,SW,215,10.0,10.0,90,0.00,,,0.04,Wunderground v.1.15,2013-10-31 00:39:00,
2013-10-30 20:44:00,54.8,51.9,30.20,SSW,211,9.0,10.0,90,0.00,,,0.05,Wunderground v.1.15,2013-10-31 00:44:00,
2013-10-30 20:54:00,54.8,51.9,30.20,SW,225,7.0,8.0,90,0.00,,,0.05,Wunderground v.1.15,2013-10-31 00:54:00,
2013-10-30 20:59:00,54.9,52.0,30.20,SW,225,8.0,8.0,90,0.00,,,0.05,Wunderground v.1.15,2013-10-31 00:59:00,
2013-10-30 21:04:00,54.9,52.0,30.20,SW,215,9.0,9.0,90,0.00,,,0.05,Wunderground v.1.15,2013-10-31 01:04:00,
2013-10-30 21:09:00,55.0,52.1,30.20,SSW,213,9.0,9.0,90,0.00,,,0.05,Wunderground v.1.15,2013-10-31 01:09:00,
2013-10-30 21:14:00,55.0,52.1,30.21,SSW,212,8.0,10.0,90,0.00,,,0.05,Wunderground v.1.15,2013-10-31 01:14:00,
2013-10-30 21:19:00,54.9,52.0,30.21,SSW,208,8.0,8.0,90,0.00,,,0.05,Wunderground v.1.15,2013-10-31 01:19:00,
2013-10-30 21:24:00,54.8,51.9,30.21,SSW,213,8.0,8.0,90,0.00,,,0.05,Wunderground v.1.15,2013-10-31 01:24:00,
2013-10-30 21:29:00,54.8,51.9,30.21,SSW,212,8.0,8.0,90,0.00,,,0.05,Wunderground v.1.15,2013-10-31 01:29:00,
2013-10-30 21:34:00,54.7,51.8,30.21,SSW,212,7.0,8.0,90,0.00,,,0.05,Wunderground v.1.15,2013-10-31 01:34:00,
2013-10-30 21:44:00,54.6,51.7,30.20,SSW,212,7.0,8.0,90,0.00,,,0.05,Wunderground v.1.15,2013-10-31 01:44:00,
2013-10-30 21:49:00,54.7,51.8,30.20,SW,221,7.0,8.0,90,0.00,,,0.05,Wunderground v.1.15,2013-10-31 01:49:00,
2013-10-30 21:59:00,54.8,51.9,30.21,SW,214,9.0,11.0,90,0.00,,,0.05,Wunderground v.1.15,2013-10-31 01:59:00,
2013-10-30 22:09:00,54.9,52.0,30.21,SW,227,9.0,10.0,90,0.00,,,0.05,Wunderground v.1.15,2013-10-31 02:09:00,
2013-10-30 22:24:00,54.7,51.8,30.21,SSW,211,7.0,8.0,90,0.00,,,0.05,Wunderground v.1.15,2013-10-31 02:24:00,
2013-10-30 22:29:00,54.7,51.8,30.20,SSW,211,7.0,7.0,90,0.00,,,0.05,Wunderground v.1.15,2013-10-31 02:29:00,
2013-10-30 22:34:00,54.7,51.8,30.20,SSW,211,7.0,7.0,90,0.00,,,0.05,Wunderground v.1.15,2013-10-31 02:34:00,
2013-10-30 22:44:00,54.6,51.7,30.20,SSW,211,7.0,7.0,90,0.00,,,0.05,Wunderground v.1.15,2013-10-31 02:44:00,
2013-10-30 22:54:00,54.6,51.7,30.20,SSW,211,7.0,7.0,90,0.00,,,0.05,Wunderground v.1.15,2013-10-31 02:54:00,
2013-10-30 22:59:00,54.6,51.7,30.20,SSW,211,7.0,8.0,90,0.00,,,0.05,Wunderground v.1.15,2013-10-31 02:59:00,
2013-10-30 23:04:00,54.5,51.6,30.20,SSW,211,7.0,8.0,90,0.00,,,0.05,Wunderground v.1.15,2013-10-31 03:04:00,
2013-10-30 23:09:00,54.4,51.5,30.20,SSW,211,7.0,7.0,90,0.00,,,0.05,Wunderground v.1.15,2013-10-31 03:09:00,
2013-10-30 23:14:00,54.2,51.3,30.20,SSW,211,6.0,7.0,90,0.00,,,0.05,Wunderground v.1.15,2013-10-31 03:14:00,
2013-10-30 23:19:00,54.0,51.1,30.20,SSW,211,6.0,7.0,90,0.00,,,0.05,Wunderground v.1.15,2013-10-31 03:19:00,
2013-10-30 23:24:00,54.0,51.1,30.20,SSW,211,6.0,7.0,90,0.00,,,0.05,Wunderground v.1.15,2013-10-31 03:24:00,
2013-10-30 23:29:00,54.1,51.2,30.20,SSW,211,6.0,7.0,90,0.00,,,0.05,Wunderground v.1.15,2013-10-31 03:29:00,
2013-10-30 23:39:00,54.2,51.3,30.20,SSW,211,7.0,7.0,90,0.00,,,0.05,Wunderground v.1.15,2013-10-31 03:39:00,
2013-10-30 23:44:00,54.3,51.4,30.20,SSW,211,6.0,7.0,90,0.00,,,0.05,Wunderground v.1.15,2013-10-31 03:44:00,
2013-10-30 23:49:00,54.3,51.4,30.19,SSW,211,6.0,6.0,90,0.00,,,0.05,Wunderground v.1.15,2013-10-31 03:49:00,
2013-10-30 23:54:00,54.4,51.5,30.19,SSW,211,5.0,6.0,90,0.00,,,0.05,Wunderground v.1.15,2013-10-31 03:54:00,
2013-10-30 23:59:00,54.4,51.5,30.18,SSW,211,5.0,5.0,90,0.00,,,0.05,Wunderground v.1.15,2013-10-31 03:59:00,